Weather observations for the past three days for
Mayport Naval Station - Adm David L. McDonald Field
Metric (Imperial)
Date Time (edt) Wind (kph) Vis. (km) Weather Sky Cond. Temperature (ºC) Relative Humidity Wind Chill (°C) Heat Index (°C) Pressure Precipitation (cm)
Air Dwpt 6 hour altimeter (cm) sea level (mb) 1 hr 3 hr 6 hr
Max. Min.
22 05:52 SW 11 16.09 Partly Cloudy SCT120 26.7 23.9 85% 29 76.25 1016.5
22 04:52 SW 13 16.09 A Few Clouds FEW110 26.7 23.9 85% 29 76.25 1016.4
22 03:52 SW 13 16.09 Fair CLR 27.2 23.9 82% 30 76.23 1016.2
22 02:52 SW 15 16.09 Overcast FEW023 OVC050 27.8 23.9 79% 32 76.28 1016.8
22 01:52 SW 22 16.09 Overcast FEW023 OVC041 27.8 24.4 30 27.8 82% 32 76.33 1017.3
22 00:52 S 22 16.09 Overcast SCT014 BKN020 OVC030 27.8 24.4 82% 32 76.33 1017.5
21 23:52 SW 20 16.09 Overcast OVC016 28.3 24.4 79% 33 76.3 1017.2
21 22:52 W 15 16.09 Mostly Cloudy BKN012 28.3 24.4 79% 33 76.28 1016.7
21 21:52 W 15 16.09 Mostly Cloudy BKN013 BKN043 BKN070 28.3 24.4 79% 33 76.25 1016.3
21 20:52 W 17 16.09 A Few Clouds FEW020 28.9 23.9 74% 33 76.2 1015.8
21 19:52 NW 17 16.09 Partly Cloudy SCT034 30 24.4 32.2 28.9 72% 36 76.2 1015.8
21 18:52 N 28 G 44 16.09 Mostly Cloudy SCT015 SCT035 BKN250 30.6 24.4 70% 36 76.2 1015.6
21 17:52 N 28 G 48 16.09 Mostly Cloudy SCT015 SCT035 BKN250 31.1 24.4 68% 37 76.2 1015.7
21 16:52 N 26 G 46 16.09 Mostly Cloudy FEW015 SCT035 BKN250 31.1 25 70% 38 76.23 1016.2
21 15:52 N 37 G 54 16.09 Overcast and Breezy SCT020 BKN035 OVC250 31.7 24.4 65% 38 76.28 1016.6
21 14:52 N 37 16.09 Overcast and Breezy SCT020 BKN040 OVC250 30.6 24.4 70% 36 76.35 1017.7
21 13:52 N 24 G 44 11.27 Light Rain BKN020 BKN040 OVC250 29.4 25 32.2 28.3 77% 35 76.4 1018.3
21 12:52 N 26 G 43 16.09 Mostly Cloudy SCT020 BKN040 BKN250 30.6 23.9 67% 36 76.45 1019.1
21 11:52 N 28 G 44 16.09 Mostly Cloudy SCT020 BKN040 BKN250 30.6 23.9 67% 36 76.45 1019.1
21 10:52 N 33 G 44 16.09 Mostly Cloudy and Breezy SCT020 BKN040 BKN250 31.7 23.9 63% 37 76.43 1018.8
21 09:52 N 33 16.09 Mostly Cloudy and Breezy SCT020 BKN040 BKN250 30.6 23.3 65% 35 76.45 1019.1
21 08:52 NE 33 16.09 Mostly Cloudy and Breezy SCT020 BKN040 BKN250 30.6 23.9 67% 36 76.45 1019.1
21 07:52 NE 31 16.09 Overcast FEW015 SCT040 OVC250 28.9 23.9 28.9 27.2 74% 33 76.45 1019.1
21 06:52 NE 35 16.09 Overcast and Breezy FEW015 SCT040 OVC250 27.8 23.9 79% 32 76.45 1019.1
21 05:52 NE 33 16.09 Overcast and Breezy SCT015 BKN040 OVC250 28.3 23.3 74% 32 76.43 1018.8
21 04:52 NE 37 16.09 Overcast and Breezy FEW015 FEW030 OVC042 27.2 23.3 79% 30 76.43 1018.7
21 03:52 NE 31 G 46 16.09 Mostly Cloudy SCT020 BKN026 BKN031 28.3 23.3 74% 32 76.45 1019.1
21 02:52 NE 33 16.09 Overcast and Breezy FEW021 BKN028 OVC035 28.3 23.3 74% 32 76.48 1019.6
21 01:52 NE 30 16.09 Mostly Cloudy FEW025 BKN037 28.3 22.2 28.9 28.3 70% 31 76.53 1020.1
21 00:52 NE 28 16.09 Partly Cloudy FEW027 SCT034 28.3 22.2 70% 31 76.58 1020.8
20 23:52 NE 28 16.09 Mostly Cloudy BKN035 BKN240 28.3 21.7 67% 31 76.61 1021.2
20 22:52 NE 30 16.09 Mostly Cloudy BKN035 BKN240 28.3 21.7 67% 31 76.61 1021.2
20 21:52 E 26 16.09 Mostly Cloudy SCT030 BKN250 28.3 21.1 65% 31 76.58 1021.0
20 20:52 NE 28 16.09 Mostly Cloudy SCT030 BKN250 28.3 21.1 65% 31 76.58 1020.8
20 19:52 NE 30 16.09 Mostly Cloudy FEW025 BKN250 28.9 20.6 32.8 28.9 61% 31 76.56 1020.6
20 18:52 NE 30 16.09 Mostly Cloudy FEW025 BKN250 30 20.6 57% 32 76.58 1020.7
20 17:52 E 31 16.09 Mostly Cloudy SCT025 BKN250 30 21.1 59% 33 76.58 1021.0
20 16:52 E 33 G 41 16.09 Partly Cloudy and Breezy FEW030 SCT250 31.1 21.7 57% 34 76.61 1021.4
20 15:52 E 30 G 43 16.09 Partly Cloudy FEW030 SCT250 32.2 21.7 54% 36 76.66 1021.8
20 14:52 NE 24 16.09 Partly Cloudy SCT030 SCT250 32.2 21.7 54% 36 76.68 1022.2
20 13:52 NE 24 16.09 Partly Cloudy SCT030 SCT250 32.2 21.7 32.8 28.9 54% 36 76.71 1022.4
20 12:52 NE 26 16.09 Partly Cloudy FEW025 SCT250 32.2 21.1 52% 35 76.73 1023.0
20 11:52 E 22 16.09 Mostly Cloudy FEW025 FEW050 BKN250 31.7 22.2 57% 36 76.76 1023.2
20 10:52 E 26 16.09 Mostly Cloudy FEW025 SCT050 BKN250 31.1 21.7 57% 34 76.73 1022.7
20 09:52 E 30 16.09 Mostly Cloudy SCT025 BKN050 BKN250 30.6 21.7 59% 34 76.71 1022.4
20 08:52 E 33 16.09 Mostly Cloudy and Breezy FEW025 SCT060 BKN250 30 21.7 61% 33 76.66 1021.8
20 07:52 E 31 G 41 16.09 Mostly Cloudy SCT025 BKN060 BKN250 29.4 22.2 29.4 27.2 65% 33 76.61 1021.1
20 06:52 E 31 16.09 Mostly Cloudy FEW025 SCT060 BKN250 28.3 21.1 65% 31 76.56 1020.5
20 05:52 E 30 16.09 Overcast SCT025 OVC060 28.3 21.1 65% 31 76.53 1020.0
20 04:52 E 31 G 52 16.09 Overcast FEW028 BKN060 OVC075 28.3 21.7 67% 31 76.48 1019.6
20 03:52 E 31 G 46 16.09 Overcast OVC065 27.8 23.3 77% 31 76.5 1019.8
20 02:52 E 31 G 50 16.09 Mostly Cloudy BKN055 BKN070 27.8 22.8 74% 31 76.5 1019.7
20 01:52 E 37 G 52 16.09 Overcast and Breezy SCT018 BKN040 OVC060 27.2 23.3 28.9 25.6 79% 30 76.53 1020.3
20 00:52 NE 24 14.48 Light Rain SCT011 BKN037 OVC060 26.1 23.3 85% 28 76.58 1020.9
19 23:52 E 33 14.48 Light Rain and Breezy SCT011 BKN025 OVC046 26.1 23.3 85% 28 76.63 1021.5
19 22:52 E 33 16.09 Overcast and Breezy FEW030 OVC065 28.3 23.3 74% 32 76.61 1021.1
19 21:52 E 30 16.09 Mostly Cloudy BKN080 28.3 21.1 65% 31 76.56 1020.4
19 20:52 E 30 16.09 Fair CLR 28.3 20.6 63% 30 76.56 1020.5
19 19:52 E 30 16.09 Fair CLR 28.9 20 31.1 26.1 59% 31 76.53 1020.2
19 18:52 E 35 G 50 16.09 A Few Clouds and Breezy FEW034 29.4 20.6 59% 32 76.56 1020.5
19 17:52 E 33 G 50 16.09 Mostly Cloudy and Breezy SCT033 BKN043 29.4 20.6 59% 32 76.53 1020.3
19 16:52 E 26 G 43 16.09 Mostly Cloudy FEW032 FEW055 BKN095 30.6 21.1 57% 33 76.56 1020.5
19 15:52 E 31 G 41 16.09 Overcast BKN065 OVC080 29.4 20.6 59% 32 76.56 1020.6
19 14:52 E 26 G 37 16.09 Overcast SCT055 OVC070 29.4 20.6 59% 32 76.61 1021.0
19 13:52 E 22 G 37 6.44 Light Rain FEW023 BKN035 OVC044 26.7 22.8 32.8 25.6 79% 29 76.63 1021.4
19 12:52 E 33 16.09 Mostly Cloudy and Breezy FEW026 SCT036 BKN060 32.8 21.7 52% 36 76.63 1021.5
19 11:52 E 33 16.09 Mostly Cloudy and Breezy SCT032 SCT041 BKN049 31.1 21.1 55% 34 76.61 1021.3
19 10:52 E 30 G 44 16.09 A Few Clouds FEW034 31.7 21.1 53% 35 76.58 1021.0
19 09:52 E 30 G 43 16.09 Partly Cloudy FEW034 SCT041 30.6 20.6 55% 33 76.56 1020.4
19 08:52 E 31 G 48 16.09 A Few Clouds FEW035 30 20.6 57% 32 76.5 1020.0
19 07:52 E 33 G 46 16.09 Mostly Cloudy and Breezy SCT038 BKN050 28.9 19.4 28.9 27.8 57% 30 76.48 1019.4
19 06:52 E 31 G 44 16.09 Mostly Cloudy BKN050 28.3 19.4 59% 30 76.43 1018.7
Date Time (edt) Wind (kph) Vis. (km) Weather Sky Cond. Air Dwpt Max. Min. Relative Humidity Wind Chill (°C) Heat Index (°C) altimeter (cm) sea level (mb) 1 hr 3 hr 6 hr
6 hour
Temperature (ºC) Pressure Precipitation (cm)